Main page
METAR-TAF:

METAR-TAF

Airports :

Perry Lefors Field

Pampa, Texas, United States

latitude: 35-36-46N, longitude: 100-59-46W, elevation: 3244 ft

Current weather observation

The report was made 14 minutes ago, at 09:15 UTC
Wind 7 mph from the West/Northwest
Temperature 72°F
Humidity 73%
Pressure 30.11 in. Hg
Visibility: 10 miles
Clear sky

METAR: KPPA 170915Z AUTO 30006KT 10SM CLR 22/17 A3011 RMK AO2 T02160172

Time: 04:29 (09:29 UTC)


TAF: missing

Weather observations and forecasts of more than 4000 airports (METAR and TAF reports).

The available stations are represented by yellow and red dots on the map.

Hover mouse over dot to see the name of the station.

Then click to see weather observations and forecasts.

To change the map : click on the green buttons with a black cross to zoom in, on the green button with a dash to zoom out, or on the green arrows for adjacent maps.


METAR-TAF: